This demonstration page uses our WeatherBlox Daily Observations layout. Learn more.

38.80484, -77.04692

Hourly Observations for April 16, 2019

Temp ( °F °C ) Dew Point ( °F °C ) Humidity (%) Winds ( mph kmh ) Pressure ( in mb ) Visibility ( mi km ) Precip ( " mm )
12:52 am 00:52 Mostly Clear 48 8.9 31 -0.6 52 52 SW 6 9 30.08 1019 10 16.0934 0 0
1:52 am 01:52 Clear 48 8.9 32 0 54 54 W 9 15 30.08 1019 10 16.0934 0 0
2:52 am 02:52 Clear 47 8.3 32 0 56 56 WSW 7 11 30.09 1019 10 16.0934 0 0
3:52 am 03:52 Clear 46 7.8 32 0 58 58 SW 6 9 30.11 1020 10 16.0934 0 0
4:52 am 04:52 Clear 45 7.2 33 0.6 63 63 SSW 7 11 30.13 1020 10 16.0934 0 0
5:52 am 05:52 Mostly Cloudy 45 7.2 32 0 61 61 SSW 5 7 30.16 1021 10 16.0934 0 0
6:52 am 06:52 Mostly Cloudy 45 7.2 33 0.6 63 63 SW 5 7 30.18 1022 10 16.0934 0 0
7:52 am 07:52 Mostly Cloudy 50 10 33 0.6 52 52 Calm 30.2 1023 10 16.0934 0 0
8:52 am 08:52 Mostly Cloudy 54 12.2 34 1.1 47 47 NW 10 17 30.21 1023 10 16.0934 0 0
9:52 am 09:52 Mostly Cloudy 56 13.3 34 1.1 44 44 NW 8 13 30.2 1023 10 16.0934 0 0
10:52 am 10:52 Mostly Cloudy 57 13.9 33 0.6 41 41 NNW 13 20 30.21 1023 10 16.0934 0 0
11:52 am 11:52 Mostly Cloudy 58 14.4 33 0.6 39 39 NW 14 22 30.19 1022 10 16.0934 0 0
12:52 pm 12:52 Mostly Cloudy 62 16.7 34 1.1 35 35 W 12 19 30.18 1022 10 16.0934 0 0
1:52 pm 13:52 Mostly Cloudy 64 17.8 32 0 30 30 WNW 7 11 30.14 1021 10 16.0934 0 0
2:52 pm 14:52 Partly Cloudy 68 20 35 1.7 30 30 W 8 13 30.11 1020 10 16.0934 0 0
3:52 pm 15:52 Partly Cloudy 67 19.4 35 1.7 31 31 WSW 13 20 30.07 1018 10 16.0934 0 0
4:52 pm 16:52 Partly Cloudy 69 20.6 34 1.1 27 27 WSW 6 9 30.05 1018 10 16.0934 0 0
5:52 pm 17:52 Partly Cloudy 68 20 37 2.8 32 32 S 13 20 30.04 1017 10 16.0934 0 0
6:52 pm 18:52 Partly Cloudy 67 19.4 41 5 39 39 S 10 17 30.03 1017 10 16.0934 0 0
7:52 pm 19:52 Partly Cloudy 64 17.8 45 7.2 50 50 S 8 13 30.03 1017 10 16.0934 0 0
8:52 pm 20:52 Partly Cloudy 63 17.2 40 4.4 43 43 S 7 11 30.04 1017 10 16.0934 0 0
9:52 pm 21:52 Cloudy 63 17.2 41 5 45 45 S 8 13 30.04 1017 10 16.0934 0 0
10:52 pm 22:52 Partly Cloudy 61 16.1 47 8.3 60 60 S 8 13 30.02 1017 10 16.0934 0 0
11:52 pm 23:52 Mostly Clear 62 16.7 39 3.9 43 43 SSW 8 13 30.01 1016 10 16.0934 0 0

Powered by AerisWeather